Regional Weather Roundup
Issued by NWS

Home | Current Version | Previous Version | Graphics & Text | Print | Product List | Glossary On
Versions: 1 2 3 4 5 6 7 8 9 10 11 12 13 14 15 16 17 18 19 20 21 22 23 24 25 26 27 28 29 30 31 32 33 34 35 36 37 38 39 40 41 42 43 44 45 46 47 48 49 50
000
ASUS43 KIND 251709
RWRIN

WEATHER ROUNDUP FOR INDIANA
NATIONAL WEATHER SERVICE INDIANAPOLIS IN
1200 PM EST SUN JAN 25 2015

NOTE: "FAIR" INDICATES FEW OR NO CLOUDS BELOW 12,000 FEET WITH NO
SIGNIFICANT WEATHER AND/OR OBSTRUCTIONS TO VISIBILITY.

* - STATION DOES NOT REPORT WEATHER SUCH AS PRECIPITATION OR FOG.

+ - STATION NOT QUALITY CONTROLLED BY THE NATIONAL WEATHER SERVICE.
    USE DATA WITH CAUTION...ESPECIALLY DEWPOINT AND RELATIVE
    HUMIDITY OBSERVATIONS.

INZ001>003-010>013-019-020-251800-
NORTHWEST INDIANA

CITY           SKY/WX    TMP DP  RH WIND       PRES   REMARKS
GARY /AIRPORT/ LGT SNOW  34  30  86 NE12G28   29.77R WCI  25
KNOX *+        CLOUDY    34  29  81 NE13      29.73S WCI  25
LA PORTE +     LGT SNOW  34  34 100 E14       29.76S WCI  25
MICHIGAN CITY+ LGT SNOW  32  32 100 NE10      29.77S WCI  24
MONTICELLO +   LGT RAIN  34  33  97 E12       29.69S WCI  25
RENSSELAER +   LGT RAIN  34  34 100 NE12      29.71S WCI  25
VALPARAISO     LGT SNOW  33  32  96 NE13      29.74S FOG     WCI  24

$$

LMZ046-743>745-251800-
SOUTHERN LAKE MICHIGAN

STATION/POSITION TIME  TEMP WIND        PRES
                       AIR  DIR/SP/G
                 (UTC) (F)  (DEG/KT/KT) (MB)
MICHIGAN CITY    1700   31   30/ 17/ 19   N/A

$$

INZ004-005-014>016-021>024-251800-
NORTH CENTRAL INDIANA

CITY           SKY/WX    TMP DP  RH WIND       PRES   REMARKS
GOSHEN         LGT SNOW  32  31  96 E18G24    29.77S FOG     WCI  20
LOGANSPORT +   LGT RAIN  32  32 100 E12       29.70F WCI  23
PERU/GRISSOM   LGT SNOW  33  32  97 E10       29.69F FOG     WCI  25
ROCHESTER +    LGT RAIN  36  36 100 E10G17    29.73S
SOUTH BEND     LGT SNOW  32  28  85 NE9       29.78R FOG     WCI  24
WARSAW +       LGT SNOW  32  32 100 E14G24    29.75R WCI  22

$$

INZ006>009-017-018-025>027-251800-
NORTHEAST INDIANA

CITY           SKY/WX    TMP DP  RH WIND       PRES   REMARKS
ANGOLA *+      CLOUDY    28  25  86 E12       29.79S WCI  18
AUBURN +       LGT SNOW  30  27  86 E17G29    29.80R WCI  18
FORT WAYNE     LGT SNOW  30  27  88 E24G31    29.77R FOG     WCI  16
HUNTINGTON +   LGT SNOW  31  28  86 E16G25    29.75R WCI  20

$$

INZ028-029-035-036-043>045-051>053-251800-
WEST CENTRAL INDIANA

CITY           SKY/WX    TMP DP  RH WIND       PRES   REMARKS
GREENCASTLE +  CLOUDY    37  32  81 E3        29.65F
LAFAYETTE      LGT RAIN  34  33  96 E8        29.68S FOG     WCI  27
TERRE HAUTE    LGT RAIN  37  35  92 CALM      29.65S FOG

$$

INZ030>032-037>040-046>048-054>057-064-065-251800-
CENTRAL INDIANA

CITY           SKY/WX    TMP DP  RH WIND       PRES   REMARKS
CP ATTERBURY + CLOUDY    39  32  75 SE9       29.68S
COLUMBUS       CLOUDY    39  30  70 SE9       29.68
GREENWOOD *+   CLOUDY    37  32  81 E7        29.67
INDIANAPOLIS   CLOUDY    35  33  92 SE9       29.66S WCI  28
-EAGLE CREEK   CLOUDY    37  33  85 SE6       29.66S
KOKOMO *+      CLOUDY    34  30  86 E13       29.69F WCI  25
MARION +       LGT SNOW  32  32 100 E10       29.70F VSB 1   WCI  24
MT COMFORT *+  CLOUDY    36  36 100 E8        29.67F
SHELBYVILLE    LGT RAIN  39  34  82 SE8       29.66F
ZIONSVILLE +   CLOUDY    37  33  87 SE8       29.67S FOG

$$

INZ033-034-041-042-049-050-058-059-251800-
EAST CENTRAL INDIANA

CITY           SKY/WX    TMP DP  RH WIND       PRES   REMARKS
MUNCIE         LGT RAIN  35  33  92 E8        29.69F FOG     WCI  29

$$

INZ060-061-067>069-081>083-085>088-251800-
SOUTHWEST INDIANA

CITY           SKY/WX    TMP DP  RH WIND       PRES   REMARKS
EVANSVILLE     LGT RAIN  42  37  82 SE6       29.65F
HUNTINGBURG *+ CLOUDY    39  36  87 S8        29.67F
WASHINGTON +   LGT RAIN  38  35  87 S7        29.65F

$$

INZ062-063-066-070>080-084-089>092-251800-
SOUTH CENTRAL AND SOUTHEAST INDIANA

CITY           SKY/WX    TMP DP  RH WIND       PRES   REMARKS
BLOOMINGTON    LGT RAIN  39  34  82 SE7       29.65S

$$



USA.gov is the U.S. government's official web portal to all federal, state and local government web resources and services.